Regional Weather Roundup
Issued by NWS

Home | Current Version | Previous Version | Graphics & Text | Print | Product List | Glossary Off
Versions: 1 2 3 4 5 6 7 8 9 10 11 12 13 14 15 16 17 18 19 20 21 22 23 24 25 26 27 28 29 30 31 32 33 34 35 36 37 38 39 40 41 42 43 44 45 46 47 48 49 50

000
ASUS45 KCYS 101110
RWRWY

WYOMING REGIONAL WEATHER ROUNDUP
NATIONAL WEATHER SERVICE CHEYENNE WY
500 AM MDT THU JUL 10 2014

NOTE:  "FAIR" INDICATES FEW OR NO CLOUDS BELOW 12,000 FEET
WITH NO SIGNIFICANT WEATHER AND/OR OBSTRUCTIONS TO VISIBILITY.

WYZ001-101200-
YELLOWSTONE NATIONAL PARK

CITY           SKY/WX    TMP DP  RH WIND       PRES   REMARKS
LK YELLOWSTONE   N/A     54  47  77 CALM      30.22S
W YELLOWSTONE  NOT AVBL

$$
WYZ002>013-054>058-071-098>099-101200-
NORTHERN WYOMING

CITY           SKY/WX    TMP DP  RH WIND       PRES   REMARKS
JACKSON        CLOUDY    61  52  72 CALM      30.10S
CODY           NOT AVBL
GREYBULL       PTCLDY    71  51  49 W12       29.86S
WORLAND        PTCLDY    71  49  45 N5        29.89R
SHERIDAN       PTCLDY    62  54  74 S3        29.89R
BUFFALO        PTCLDY    62  57  83 S6        29.97R
GILLETTE       CLOUDY    63  58  83 S9        29.91F
HULETT         FAIR      63  57  82 MISG      29.94
NEWCASTLE      FAIR      68  52  56 E13       29.88

$$
WYZ014>020-022>026-101>103-101200-
CENTRAL WYOMING

CITY           SKY/WX    TMP DP  RH WIND       PRES   REMARKS
BIG PINEY      PTCLDY    56  43  61 N5        30.16S
PINEDALE       MOSUNNY   54  48  82 CALM      30.17S
DUBOIS         FAIR      59  39  47 NW8       30.14S
LANDER         MOCLDY    70  42  36 NW9       29.98R
RIVERTON       PTCLDY    67  44  43 W8        30.00R
CASPER         PTCLDY    62  54  74 NW13      29.98R
DOUGLAS        MOCLDY    59  57  93 E16G28    29.95R FOG

$$
WYZ021-027>030-104>119-101200-
SOUTHERN WYOMING

CITY           SKY/WX    TMP DP  RH WIND       PRES   REMARKS
EVANSTON       MOCLDY    62  48  60 SW8       30.18F
KEMMERER       CLOUDY    59  46  63 NW9       30.19R
FORT BRIDGER   FAIR      63  49  60 W7        30.20S
ROCK SPRINGS   PTCLDY    65  42  43 SW15      30.14S
DIXON          FAIR      57  42  57 NE3       30.19S
RAWLINS        MOCLDY    69  42  37 SW17      30.14R
SARATOGA       FAIR      64  41  42 S9        30.17S
LARAMIE        CLEAR     60  40  47 SW7       30.16S
CHEYENNE       CLEAR     57  46  66 SW7       30.06R
TORRINGTON     CLEAR     55  54  96 E5        29.92R

$$


USA.gov is the U.S. government's official web portal to all federal, state and local government web resources and services.